This is the latest recevied weather packets stored in our database for station/object DM3DP. If no packets are shown the sender has not sent any weather packets the latest 10 day(s).
| Time | Temp. | Humidity | Pressure | Rain* | Wind** | Luminosity | Snow |
|---|---|---|---|---|---|---|---|
| 1777908534 | 16.67° C | 99% | 1011.6 hPa | 3.3 mm | - | 38 W/m² | - |
| 1777908204 | 17.22° C | 98% | 1011.6 hPa | 3.05 mm | - | 40 W/m² | - |
| 1777907875 | 17.22° C | 98% | 1011.6 hPa | 3.05 mm | - | 40 W/m² | - |
| 1777907544 | 17.22° C | 99% | 1011.6 hPa | 2.54 mm | - | 24 W/m² | - |
| 1777907215 | 17.22° C | 99% | 1011.5 hPa | 2.29 mm | - | 17 W/m² | - |
| 1777906885 | 17.22° C | 92% | 1011.5 hPa | 2.03 mm | - | 16 W/m² | - |
| 1777906554 | 17.78° C | 90% | 1011.5 hPa | 1.78 mm | - | 19 W/m² | - |
| 1777906224 | 17.78° C | 88% | 1011.5 hPa | 2.03 mm | - | 33 W/m² | - |
| 1777905894 | 17.78° C | 88% | 1011.4 hPa | 1.78 mm | - | 35 W/m² | - |
| 1777905564 | 17.78° C | 86% | 1011.4 hPa | 1.27 mm | - | 34 W/m² | - |
| 1777905235 | 18.33° C | 84% | 1011.4 hPa | 1.02 mm | - | 26 W/m² | - |
| 1777904905 | 18.33° C | 83% | 1011.4 hPa | 0.76 mm | - | 19 W/m² | - |
| 1777904574 | 18.89° C | 83% | 1011.3 hPa | 0.76 mm | - | 14 W/m² | - |
| 1777904245 | 18.89° C | 82% | 1011.2 hPa | 0.51 mm | - | 19 W/m² | - |
| 1777903914 | 18.89° C | 81% | 1011 hPa | 0.51 mm | - | 45 W/m² | - |
| 1777903584 | 18.89° C | 81% | 1010.9 hPa | 0.51 mm | - | 62 W/m² | - |
| 1777903254 | 19.44° C | 77% | 1010.8 hPa | 0.25 mm | - | 66 W/m² | - |
| 1777902924 | 19.44° C | 74% | 1010.7 hPa | 0 mm | - | 51 W/m² | - |
| 1777902594 | 20° C | 71% | 1010.7 hPa | 0 mm | - | 38 W/m² | - |
| 1777902265 | 20.56° C | 69% | 1010.7 hPa | 0 mm | - | 35 W/m² | - |
| 1777901935 | 20.56° C | 69% | 1010.7 hPa | 0 mm | - | 40 W/m² | - |
| 1777901604 | 20.56° C | 67% | 1010.6 hPa | 0 mm | - | 50 W/m² | - |
| 1777901275 | 20.56° C | 66% | 1010.6 hPa | 0 mm | - | 58 W/m² | - |
| 1777900944 | 20.56° C | 66% | 1010.6 hPa | 0 mm | - | 65 W/m² | - |
| 1777900614 | 20.56° C | 66% | 1010.6 hPa | 0 mm | - | 68 W/m² | - |
* Rain latest hour (hover to see other rain measurements)
** Current wind speed in m/s (hover to see current wind gust speed)